Location: Newark
(32.9533°N, 113.4900°W)
Time: 11:27:30
(UTC+00:00)

Envisat - Visible Passes

Search period start: 21 March 2019 00:00
Search period end: 31 March 2019 00:00
Orbit: 764 x 766 km, 98.2° (Epoch: 21 March)

Date Brightness Start Highest point End Pass type
(mag) Time Alt. Az. Time Alt. Az. Time Alt. Az.
21 Mar 3.5 02:31:15 10° S 02:36:16 64° W 02:41:19 10° NNW visible
22 Mar 6.0 03:36:17 10° WSW 03:38:51 14° W 03:41:25 10° WNW visible
23 Mar 4.7 02:57:18 10° SSW 03:01:52 34° W 03:06:27 10° NNW visible
24 Mar 3.1 02:19:59 10° S 02:25:03 84° WSW 02:30:09 10° NNW visible
25 Mar 5.7 03:24:07 10° SW 03:27:33 18° W 03:31:00 10° NW visible
26 Mar 4.2 02:45:48 10° S 02:50:36 44° W 02:55:27 10° NNW visible
27 Mar 3.0 02:08:48 10° SSE 02:13:51 76° ENE 02:18:56 10° N visible
28 Mar 5.4 03:12:14 10° SSW 03:16:15 24° W 03:20:18 10° NW visible
29 Mar 3.7 02:34:23 10° S 02:39:22 58° W 02:44:23 10° NNW visible
30 Mar 6.0 03:39:56 10° WSW 03:41:59 12° W 03:44:02 10° WNW visible
